Location: Holyhead Bay
(53.3667°N, 4.6667°W)
Time: 15:37:24
(UTC+00:00)

Helios 1B - Visible Passes

Search period start: 24 June 2021 00:00
Search period end: 04 July 2021 00:00
Orbit: 620 x 622 km, 98.3° (Epoch: 23 June)

Date Brightness Start Highest point End Pass type
(mag) Time Alt. Az. Time Alt. Az. Time Alt. Az.
24 Jun 7.9 02:53:27 10° E 02:55:28 13° NE 02:57:29 10° NNE visible
29 Jun 8.1 02:46:15 10° ENE 02:47:36 11° NE 02:48:57 10° NNE visible
30 Jun 7.8 03:02:31 10° E 03:04:58 15° NE 03:07:26 10° NNE visible
